Simultaneous Nadir Overpasses (SNOs) Predictions

Prediction of SNOs between AQUA and NOAA-19 Satellite Orbit:

Table of predicted SNOs for the next 14.0 days since TLE Epoch: 8/4/2018
Index Date (AQUA) Time (AQUA) Lat,Lon (AQUA) SZA (AQUA ) Date (NOAA-19) Time (NOAA-19) Lat,Lon (NOAA-19) SZA (NOAA-19 ) Distance(km) Time Diff (sec)
1 08/05/2018 01:52:31 -80.74, -65.71 114.13 08/05/2018 01:51:23 -80.75, -65.90 114.08 3.43 68
2 08/05/2018 02:41:58 80.76, 101.73 65.91 08/05/2018 02:42:28 80.76, 101.60 65.91 2.32 30
3 08/07/2018 07:26:14 80.76, 30.65 66.51 08/07/2018 07:25:02 80.75, 30.72 66.52 2.16 72
4 08/07/2018 08:15:40 -80.74,-161.51 113.52 08/07/2018 08:15:56 -80.76,-161.53 113.51 1.80 16
5 08/09/2018 13:49:23 80.76, -65.16 67.15 08/09/2018 13:49:36 80.75, -65.30 67.15 3.04 13
6 08/11/2018 19:23:05 -80.75, 31.55 112.24 08/11/2018 19:23:04 -80.75, 31.55 112.24 0.12 1
7 08/14/2018 00:56:46 80.74, 128.22 68.41 08/14/2018 00:56:41 80.76, 128.36 68.41 2.89 5




NCC Satellite Simultaneous Nadir Overpasses (SNOs) Prediction Service
